Weather in Shishkin Les

Russia / Moscow Oblast     55°24′43″N   37°11′17″E
temp.,
°C
wind,
m/s
gust,
m/s
humid.,
%
clouds,
%
prec.,
mm/h
press.,
hPa
HPBL,
m
19 september, sun
sun1900:00+5e51270100 0.0 1023545
03:00+5e51373100 0.0 1022562
06:00+4e51376100 0.0 1022570
09:00+6e71469100 0.0 1021761
12:00+7e71365100 0.2 1021942
15:00+7e71368100 0.6 1020954
18:00+6e71474100 1.4 1019984
21:00+5e71687100 4.0 1019947
20 september, mon
mon2000:00+5ene81791100 5.2 1018843
03:00+4ene81793100 12.6 1016825
06:00+4e81694100 3.1 1015934
09:00+5e81594100 5.7 10151051
12:00+5e81595100 3.8 1016986
15:00+5e71495100 5.5 1015940
18:00+5e71495100 2.9 10151030
21:00+5e71395100 3.1 1015969
21 september, tue
tue2100:00+5e71495100 1.6 1014900
03:00+6e71396100 5.9 1013859
06:00+6e61197100 0.2 1013770
09:00+6e51097100 1.1 1013595
12:00+7e51196100 0.6 1012616
15:00+8e61194100 0.8 1012694
18:00+8ese61297100 1.6 1012737
21:00+8ese51098100 3.0 1012645
22 september, wed
wed2200:00+8ese3798100 0.7 1013492
03:00+7ese2597100 1.9 1013319
06:00+7e2598100 0.9 1013304
09:00+7e349480 1.1 1014382
12:00+10se357695 0.2 10151020
15:00+10se3575100 0.4 1015884
18:00+8sse118498 0.3 101731
21:00+8e2692100 0.5 1018278
23 september, thu
thu2300:00+7e269597 0.5 1018283
03:00+7e2495100 0.5 1017169
06:00+7ene2597100 0.0 1017204
09:00+8ene4995100 0.1 1016424
12:00+8e3794100 0.3 1015442
15:00+11sse3582100 0.9 1014691
18:00+9sw1191100 0.2 101414
21:00+7w12959 0.3 101447